Lid_Strength_Index
17 17 17 17 16 16 15 14 15 14 14 14 14 14 14 15 15 15 15 15 15 15 14 14 13 12 11 11 10 11 11 11 11 9 8 8 8 9 9 9 9 10 10
17 17 17 16 16 17 16 15 15 14 14 14 14 14 14 15 16 16 16 16 16 15 15 14 14 12 12 11 10 11 11 10 10 11 9 8 9 8 9 10 10 10 10
17 17 17 16 16 17 15 16 15 14 14 14 14 14 14 15 15 16 16 16 15 15 14 14 14 12 12 12 11 11 12 11 10 9 10 9 8 8 9 9 11 11 10
17 17 18 18 17 17 16 16 16 15 14 14 14 14 14 15 15 16 16 16 15 14 14 14 14 12 12 12 12 12 13 12 12 10 10 10 10 9 9 11 11 11 13
18 18 18 17 17 17 16 16 16 15 14 14 14 14 14 14 15 16 16 16 15 15 14 14 14 14 12 11 12 12 12 13 13 12 12 11 11 12 11 11 12 11 12
18 18 17 17 17 17 16 16 17 16 15 15 14 14 14 13 14 14 15 16 15 15 15 14 14 14 13 12 12 11 11 13 14 14 13 13 13 12 11 11 12 14 15
17 18 18 17 17 17 16 16 17 17 16 16 16 15 14 14 14 14 15 16 16 15 15 15 14 14 14 15 14 14 13 12 13 15 15 14 13 12 12 11 11 13 14
17 18 18 17 17 17 17 17 17 17 17 16 16 15 14 14 14 14 15 16 15 15 14 14 14 14 14 15 15 16 16 15 13 14 14 14 13 12 12 11 11 12 12
18 18 18 18 18 17 17 17 17 17 17 17 16 15 15 14 14 14 15 16 16 15 14 13 13 14 13 14 16 17 17 17 15 13 13 13 13 12 13 13 13 13 14
17 17 17 17 17 17 17 17 17 16 16 16 16 15 15 14 13 13 15 15 16 15 15 14 13 13 13 14 16 16 17 17 17 17 17 16 16 16 15 16 15 15 16
17 17 17 17 17 17 17 17 17 16 16 16 16 16 15 14 14 13 14 15 15 15 15 15 14 13 13 13 14 16 17 17 17 18 18 17 17 17 17 17 17 17 17
16 17 17 17 17 17 18 17 17 16 17 17 17 17 16 15 14 13 13 14 14 15 16 16 14 13 13 13 14 14 15 18 18 18 18 19 19 19 19 18 19 18 17
16 17 17 17 17 17 18 18 17 17 18 18 18 18 17 16 15 12 13 14 14 16 15 15 15 15 16 16 15 16 19 18 18 19 19 20 21 21 20 20 20 21 21
16 17 17 17 18 18 17 17 17 17 18 18 18 18 18 17 16 15 14 14 15 15 15 17 16 17 17 20 20 20 20 20 20 20 21 22 21 20 21 22 21 21 19
16 17 17 17 18 18 18 17 17 17 17 18 18 17 18 18 17 15 15 17 17 18 22 21 21 21 21 21 22 23 23 22 21 23 22 21 21 20 21 23 23 21 22
16 17 17 17 18 18 19 19 15 16 15 15 15 16 17 16 14 13 13 14 15 16 22 21 22 22 21 21 22 22 24 25 24 23 23 22 22 22 21 22 23 23 22
15 16 16 17 18 18 19 19 19 17 15 15 14 14 15 15 14 13 12 13 13 16 22 23 21 22 22 23 23 23 22 25 29 25 24 24 23 23 22 22 22 22 22
15 16 16 16 17 18 18 18 18 18 19 17 14 14 14 14 13 13 12 13 15 19 24 23 22 23 24 23 24 23 24 25 25 25 25 25 24 22 21 22 24 23 22
15 15 16 16 16 17 17 18 18 18 18 18 19 15 15 13 13 13 12 15 16 18 23 24 23 23 24 24 24 25 24 24 25 25 26 26 26 23 24 25 24 28 26
14 15 15 16 16 17 17 18 18 18 18 18 18 17 16 16 15 14 13 15 18 18 21 23 23 23 24 24 25 26 26 27 26 25 26 26 26 25 24 25 24 21 23
13 14 15 15 16 17 17 18 18 18 18 18 18 16 16 16 16 15 15 14 17 17 20 21 22 23 24 24 25 26 25 25 26 26 26 27 28 24 27 26 26 26 25
12 13 15 15 16 16 17 17 17 18 18 18 18 17 15 17 16 15 15 15 17 17 19 21 22 22 23 23 24 24 25 24 25 26 26 28 28 27 28 26 26 26 25
12 13 14 15 15 16 17 17 17 17 17 17 18 18 16 17 16 16 15 15 18 21 21 21 22 23 23 23 23 22 23 24 24 25 26 27 27 27 27 25 26 26 25
12 13 14 14 15 16 17 17 17 17 17 17 18 18 17 16 17 16 16 18 20 21 22 22 21 22 23 23 23 23 22 23 25 25 25 25 26 28 28 27 26 27 25
12 13 13 14 14 16 17 17 17 17 17 17 18 18 17 16 16 17 18 19 21 22 22 22 21 21 22 22 23 24 24 23 25 25 25 25 25 27 27 27 27 27 27
12 12 13 13 14 15 16 17 17 17 17 17 17 18 18 17 16 17 18 20 21 21 22 22 21 21 21 22 22 22 22 22 26 26 25 25 25 26 27 26 27 26 27